Regional Weather Roundup
Issued by NWS

Home | Current Version | Previous Version | Text Only | Print | Product List | Glossary Off
Versions: 1 2 3 4 5 6 7 8 9 10 11 12 13 14 15 16 17 18 19 20 21 22 23 24 25 26 27 28 29 30 31 32 33 34 35 36 37 38 39 40 41 42 43 44 45 46 47 48 49 50

569
ASUS43 KDMX 230801
RWRIA

WEATHER ROUNDUP FOR IOWA
NATIONAL WEATHER SERVICE DES MOINES IA
300 AM CDT TUE MAY 23 2017

NOTE: "FAIR" INDICATES FEW OR NO CLOUDS BELOW 12,000 FEET WITH NO
SIGNIFICANT WEATHER AND/OR OBSTRUCTIONS TO VISIBILITY.

* - THESE STATIONS ARE NOT NWS STATIONS...THUS NOT UNDER NWS
QUALITY CONTROL.  THEY ALSO DO NOT REPORT WEATHER SUCH
AS PRECIPITATION OR FOG.

IAZ001>003-012>014-020>022-031>034-043>046-230900-
   NORTHWEST IOWA

CITY           SKY/WX    TMP DP  RH WIND       PRES   REMARKS
CARROLL *      PTCLDY    52  48  87 NW10      29.86S
CHEROKEE *     CLOUDY    48  47  96 W5        29.88F
DENISON *      PTCLDY    46  45  93 NW6       29.90F
LE MARS *      PTCLDY    48  45  87 NW8       29.91S
ORANGE CITY *  PTCLDY    46  45  93 NW7       29.89F
SHELDON *      MOCLDY    48  45  87 NW12        N/A
SIOUX CITY     PTCLDY    48  45  89 W9        29.92S
SPENCER        CLOUDY    49  47  93 W9        29.86F
STORM LAKE *   PTCLDY    48  45  87 NW9       29.87F
$$

IAZ055>058-069>071-079>083-090>094-230900-
   SOUTHWEST IOWA

CITY           SKY/WX    TMP DP  RH WIND       PRES   REMARKS
ATLANTIC *     CLOUDY    50  48  93 NW12      29.87S
AUDUBON *      MOCLDY    50  46  87 NW7       29.88S
CLARINDA *     PTCLDY    54  50  87 N12       29.89S
COUNCIL BLFS * MOCLDY    50  48  93 NW9       29.90F
CRESTON *      CLOUDY    52  48  87 NW9       29.86S
HARLAN  *      PTCLDY    50  46  87 NW10      29.92S
LAMONI         FOG       52  51  97 SW5       29.84F VSB 3/4
RED OAK *      CLOUDY    54  48  82 N12       29.89R
SHENANDOAH *   CLOUDY    55  50  82 N13G21    29.89S
$$

IAZ047>049-059>061-072>074-084-230900-
   CENTRAL IOWA

CITY           SKY/WX    TMP DP  RH WIND       PRES   REMARKS
AMES           PTCLDY    52  50  93 NW12      29.81F
ANKENY *       CLEAR     54  50  87 W9        29.83S
BOONE *        MOCLDY    52  52 100 NW16      29.82R
DES MOINES     PTCLDY    54  50  86 NW10      29.82F
MARSHALLTOWN   CLEAR     49  49 100 NW6       29.79F
NEWTON *       CLEAR     52  50  93 W5        29.80F
PELLA *        CLOUDY    52  51  95 SW5       29.83F
PERRY *        MOCLDY    53  51  94 NW12      29.84S
$$

IAZ004>006-015-016-023>025-035-036-230900-
   NORTH CENTRAL IOWA

CITY           SKY/WX    TMP DP  RH WIND       PRES   REMARKS
ALGONA *       CLOUDY    52  52 100 NW8       29.83F
CLARION *      CLOUDY    52  52 100 NW10      29.83S
ESTHERVILLE    CLOUDY    49  49 100 NW10      29.84F
FORT DODGE *   MOCLDY    52  46  82 NW5       29.85S
MASON CITY     LGT RAIN  50  46  86 NW10      29.83F
FOREST CITY *  CLOUDY    50  45  81 N5        29.82F
WEBSTER CITY * CLOUDY    52  50  93 NW14      29.81F
IOWA FALLS *     N/A     51  49  95 NW10      29.81S
$$

IAZ007>011-017>019-026>030-037>042-050>054-066-230900-
   NORTHEAST IOWA

CITY           SKY/WX    TMP DP  RH WIND       PRES   REMARKS
CEDAR RAPIDS   PTCLDY    51  51 100 SW5       29.79S
CHARLES CITY * MOCLDY    52  52 100 NW10      29.79F
CLINTON *      PTCLDY    54  52  93 SW9       29.81F
DECORAH *      FOG       50  50 100 NW5       29.76F VSB<1/4
DUBUQUE        PTCLDY    52  51  97 S8        29.77F
MONTICELLO *   PTCLDY    52  52 100 S6        29.78F
OELWEIN *      CLOUDY    52  52 100 NW5       29.77F FOG
WATERLOO       CLEAR     50  49  96 NW9       29.77F FOG
$$

IAZ064-065-067-068-078-230900-
   EAST CENTRAL IOWA

CITY           SKY/WX    TMP DP  RH WIND       PRES   REMARKS
DAVENPORT      CLOUDY    56  50  80 S10       29.82F
IOWA CITY      PTCLDY    55  50  83 SW7       29.82F
MT. PLEASANT * CLOUDY    54  52  94 SW6       29.84S
MUSCATINE *    CLOUDY    55  50  82 SW8       29.82F
QUAD CITIES    CLOUDY    57  50  77 SW8       29.81F
$$

IAZ062-063-075>077-085>089-095>099-230900-
   SOUTHEAST IOWA

CITY           SKY/WX    TMP DP  RH WIND       PRES   REMARKS
BURLINGTON     CLOUDY    57  55  93 SW10      29.83F
FAIRFIELD *    CLOUDY    54  50  87 SW8       29.82F
FORT MADISON * CLOUDY    57  55  94 SW9       29.84F
KEOKUK *       LGT RAIN  57  55  94 S13G20    29.83F
OSKALOOSA *    MOCLDY    52  50  93 SW9       29.82F
OTTUMWA        CLOUDY    53  52  96 SW7       29.83F
WASHINGTON *   CLOUDY    54  52  94 SW9       29.83F
$$

ABBREVIATIONS USED IN REMARKS
   TC - TEMPERATURES IN CELSIUS
  WCI - WIND CHILL INDEX
   HX - HEAT INDEX
  VSB - VISIBILITY
$$





USA.gov is the U.S. government's official web portal to all federal, state and local government web resources and services.